This is the latest recevied weather packets stored in our database for station/object WY1B. If no packets are shown the sender has not sent any weather packets the latest 10 day(s).
| Time | Temp. | Humidity | Pressure | Rain* | Wind** | Luminosity | Snow |
|---|---|---|---|---|---|---|---|
| 1787614232 | 45.56° C | 17% | 1003.8 hPa | 0 mm | - | 292 W/m² | - |
| 1787613927 | 45° C | 17% | 1004 hPa | 0 mm | - | 307 W/m² | - |
| 1787613623 | 45° C | 17% | 1003.9 hPa | 0 mm | - | 322 W/m² | - |
| 1787613323 | 45° C | 17% | 1003.9 hPa | 0 mm | - | 337 W/m² | - |
| 1787613020 | 44.44° C | 17% | 1004.1 hPa | 0 mm | - | 353 W/m² | - |
| 1787612716 | 45° C | 18% | 1004.2 hPa | 0 mm | - | 369 W/m² | - |
| 1787612412 | 45° C | 19% | 1004.2 hPa | 0 mm | - | 385 W/m² | - |
| 1787612107 | 45° C | 19% | 1004 hPa | 0 mm | - | 400 W/m² | - |
| 1787611803 | 45° C | 19% | 1004.2 hPa | 0 mm | - | 416 W/m² | - |
| 1787611499 | 45° C | 19% | 1004.2 hPa | 0 mm | - | 432 W/m² | - |
| 1787611194 | 44.44° C | 19% | 1004.3 hPa | 0 mm | - | 451 W/m² | - |
| 1787610890 | 45° C | 19% | 1004.4 hPa | 0 mm | - | 466 W/m² | - |
| 1787610585 | 45° C | 20% | 1004.5 hPa | 0 mm | - | 485 W/m² | - |
| 1787610280 | 45° C | 19% | 1004.6 hPa | 0 mm | - | 506 W/m² | - |
| 1787609979 | 44.44° C | 20% | 1004.5 hPa | 0 mm | - | 516 W/m² | - |
| 1787609679 | 43.89° C | 20% | 1004.7 hPa | 0 mm | - | 546 W/m² | - |
| 1787609374 | 43.89° C | 21% | 1004.8 hPa | 0 mm | - | 559 W/m² | - |
| 1787609073 | 43.89° C | 20% | 1004.9 hPa | 0 mm | - | 557 W/m² | - |
| 1787608768 | 43.89° C | 20% | 1004.9 hPa | 0 mm | - | 465 W/m² | - |
| 1787608469 | 43.89° C | 21% | 1005.2 hPa | 0 mm | - | 542 W/m² | - |
| 1787608165 | 43.33° C | 21% | 1005 hPa | 0 mm | - | 483 W/m² | - |
| 1787607861 | 43.89° C | 21% | 1005.5 hPa | 0 mm | - | 540 W/m² | - |
| 1787607558 | 44.44° C | 21% | 1005.5 hPa | 0 mm | - | 579 W/m² | - |
| 1787607254 | 43.89° C | 21% | 1005.6 hPa | 0 mm | - | 621 W/m² | - |
| 1787606951 | 43.89° C | 22% | 1005.5 hPa | 0 mm | - | 685 W/m² | - |
* Rain latest hour (hover to see other rain measurements)
** Current wind speed in m/s (hover to see current wind gust speed)